Location: Joplin
(37.0842°N, 94.5131°W)
Time: 11:58:00
(UTC-05:00)

OTV 5 (USA 277) - Visible Passes

Search period start: 23 October 2018 00:00
Search period end: 02 November 2018 00:00
Orbit: 387 x 394 km, 54.5° (Epoch: 08 September)

Date Brightness Start Highest point End Pass type
(mag) Time Alt. Az. Time Alt. Az. Time Alt. Az.
23 Oct ? 19:52:36 10° SW 19:55:45 71° SE 19:56:08 61° E visible
24 Oct ? 18:56:45 10° S 18:59:27 26° SE 19:02:11 10° ENE visible
24 Oct ? 20:32:43 10° W 20:34:47 22° NW 20:34:47 22° NW visible
25 Oct ? 19:35:41 10° WSW 19:38:48 51° NW 19:40:52 19° NNE visible
26 Oct ? 20:16:45 10° WNW 20:18:35 14° NNW 20:19:14 14° NNW visible
27 Oct ? 19:19:10 10° W 19:21:55 26° NW 19:24:41 10° NNE visible
29 Oct ? 19:03:04 10° WNW 19:05:08 16° NNW 19:07:11 10° N visible
31 Oct ? 18:48:07 10° NNW 18:48:25 10° NNW 18:48:42 10° NNW visible
